| time (UTC) | temp F | wind direction | speed MPH | gust MPH | rain 1hr in | rain 24hr in | rain mn in | humidity % | barometer mb |
| 20260504223537 | 58 | 0.0 | 1.0 | 0.00 | 0.00 | 0.00 | 74 | 1011.0 | |
| 20260504222518 | 58 | 0.0 | 1.0 | 0.00 | 0.00 | 0.00 | 74 | 1010.9 | |
| 20260504221517 | 59 | 0.0 | 0.0 | 0.00 | 0.00 | 0.00 | 73 | 1011.1 | |
| 20260504220538 | 59 | 0.0 | 1.0 | 0.00 | 0.00 | 0.00 | 73 | 1011.0 | |
| 20260504215516 | 59 | 0.0 | 2.0 | 0.00 | 0.00 | 0.00 | 72 | 1011.1 | |
| 20260504214516 | 59 | 0.0 | 2.0 | 0.00 | 0.00 | 0.00 | 72 | 1011.2 | |
| 20260504213516 | 59 | 0.0 | 0.0 | 0.00 | 0.00 | 0.00 | 72 | 1011.2 | |
| 20260504212516 | 60 | 0.0 | 1.0 | 0.00 | 0.00 | 0.00 | 70 | 1011.3 | |
| 20260504211557 | 60 | 0.0 | 1.0 | 0.00 | 0.00 | 0.00 | 70 | 1011.2 | |
| 20260504210516 | 61 | 0.0 | 0.0 | 0.00 | 0.00 | 0.00 | 69 | 1011.4 | |
| 20260504205516 | 61 | 0.0 | 0.0 | 0.00 | 0.00 | 0.00 | 68 | 1011.4 | |
| 20260504204516 | 61 | 0.0 | 0.0 | 0.00 | 0.00 | 0.00 | 67 | 1011.5 | |
| 20260504203516 | 61 | 0.0 | 0.0 | 0.00 | 0.00 | 0.00 | 67 | 1011.4 | |
| 20260504202516 | 61 | 0.0 | 2.0 | 0.00 | 0.00 | 0.00 | 66 | 1011.5 | |
| 20260504201516 | 62 | 0.0 | 0.0 | 0.00 | 0.00 | 0.00 | 66 | 1011.4 | |
| 20260504200536 | 62 | 0.0 | 1.0 | 0.00 | 0.00 | 0.00 | 66 | 1011.4 | |
| 20260504195517 | 62 | 0.0 | 1.0 | 0.00 | 0.00 | 0.00 | 65 | 1011.5 | |
| 20260504194559 | 62 | 0.0 | 0.0 | 0.00 | 0.00 | 0.00 | 64 | 1011.5 | |
| 20260504193516 | 63 | 0.0 | 0.0 | 0.00 | 0.00 | 0.00 | 64 | 1011.5 | |
| 20260504192516 | 63 | 0.0 | 0.0 | 0.00 | 0.00 | 0.00 | 63 | 1011.6 | |
| 20260504191516 | 64 | 0.0 | 0.0 | 0.00 | 0.00 | 0.00 | 62 | 1011.4 | |
| 20260504190516 | 64 | 0.0 | 0.0 | 0.00 | 0.00 | 0.00 | 61 | 1011.5 | |
| 20260504185516 | 64 | 0.0 | 0.0 | 0.00 | 0.00 | 0.00 | 61 | 1011.3 | |
| 20260504184516 | 65 | 0.0 | 2.0 | 0.00 | 0.00 | 0.00 | 60 | 1011.3 | |
| 20260504183519 | 65 | 0.0 | 0.0 | 0.00 | 0.00 | 0.00 | 59 | 1011.2 | |
| 20260504182516 | 66 | 0.0 | 0.0 | 0.00 | 0.00 | 0.00 | 58 | 1011.1 | |
| 20260504181516 | 66 | 0.0 | 0.0 | 0.00 | 0.00 | 0.00 | 57 | 1011.2 | |
| 20260504180536 | 67 | 0.0 | 2.0 | 0.00 | 0.00 | 0.00 | 57 | 1011.2 | |
| 20260504175556 | 68 | 0.0 | 2.0 | 0.00 | 0.00 | 0.00 | 55 | 1011.2 | |
| 20260504174536 | 68 | 293 | 1.0 | 2.0 | 0.00 | 0.00 | 0.00 | 53 | 1011.1 |
| 20260504173516 | 69 | 0.0 | 2.0 | 0.00 | 0.00 | 0.00 | 51 | 1011.1 | |
| 20260504172516 | 70 | 293 | 1.0 | 4.0 | 0.00 | 0.00 | 0.00 | 52 | 1011.1 |
| 20260504171516 | 70 | 0.0 | 0.0 | 0.00 | 0.00 | 0.00 | 50 | 1011.0 | |
| 20260504170516 | 70 | 0.0 | 1.0 | 0.00 | 0.00 | 0.00 | 46 | 1011.1 | |
| 20260504150517 | 72 | 0.0 | 3.0 | 0.00 | 0.00 | 0.00 | 41 | 1011.7 | |
| 20260504140518 | 72 | 315 | 1.0 | 5.0 | 0.00 | 0.00 | 0.00 | 46 | 1012.1 |
| 20260504130517 | 72 | 158 | 2.0 | 6.0 | 0.00 | 0.00 | 0.00 | 42 | 1012.5 |
| 20260504110517 | 70 | 0.0 | 6.0 | 0.00 | 0.00 | 0.00 | 47 | 1013.4 | |
| 20260504100537 | 69 | 248 | 3.0 | 7.0 | 0.00 | 0.00 | 0.00 | 45 | 1014.1 |
| 20260504081536 | 65 | 293 | 1.0 | 8.0 | 0.00 | 0.00 | 0.00 | 52 | 1014.2 |
| 20260504080516 | 66 | 0.0 | 3.0 | 0.00 | 0.00 | 0.00 | 53 | 1014.3 |